TWISTERF5 Weather Reports


Display with metric or nautical units.
time (UTC)temp
F
wind
direction
speed
MPH
gust
MPH
rain 1hr
in
rain 24hr
in
rain mn
in
humidity
%
barometer
mb
20260508033515 40 287 1.0 4.0 0.00 0.02 0.02 79 1006.8
20260508033034 40 286 1.0 5.0 0.00 0.02 0.02 79 1006.9
20260508032517 40 0 1.0 6.0 0.00 0.02 0.02 78 1006.9
20260508032017 40 290 1.0 6.0 0.00 0.02 0.02 78 1006.9
20260508031535 40 301 0.0 4.0 0.00 0.02 0.02 78 1006.9
20260508031015 40 296 1.0 6.0 0.00 0.02 0.02 78 1006.8
20260508030520 40 0 1.0 6.0 0.00 0.02 0.02 78 1006.9
20260508030035 40 292 1.0 4.0 0.00 0.02 0.02 78 1006.9
20260508025515 40 294 1.0 4.0 0.00 0.02 0.02 78 1006.8
20260508025015 40 308 1.0 4.0 0.00 0.02 0.02 78 1006.8
20260508024530 41 292 1.0 4.0 0.00 0.02 0.02 78 1006.7
20260508024015 41 286 1.0 3.0 0.00 0.02 0.02 78 1006.8
20260508023515 41 294 1.0 4.0 0.00 0.02 0.02 78 1006.7
20260508023030 41 298 0.0 6.0 0.00 0.02 0.02 78 1006.7
20260508022513 41 317 2.0 6.0 0.00 0.02 0.02 78 1006.6
20260508022015 41 355 0.0 4.0 0.00 0.02 0.02 79 1006.7
20260508021530 41 0 0.0 7.0 0.00 0.02 0.02 79 1006.7
20260508021022 41 42 2.0 8.0 0.00 0.02 0.02 79 1006.8
20260508020515 41 347 3.0 10.0 0.00 0.02 0.02 78 1006.9
20260508020033 41 329 3.0 12.0 0.00 0.02 0.02 78 1006.9
20260508015515 41 269 3.0 12.0 0.00 0.02 0.02 77 1007.1
20260508015019 41 295 3.0 8.0 0.00 0.02 0.02 76 1007.0
20260508014529 41 305 1.0 5.0 0.00 0.02 0.02 76 1007.0
20260508014015 41 294 1.0 5.0 0.00 0.02 0.02 76 1006.9
20260508013515 42 0 1.0 4.0 0.00 0.02 0.02 76 1006.9
20260508013034 42 302 1.0 4.0 0.00 0.02 0.02 77 1006.8
20260508012519 42 265 1.0 5.0 0.00 0.02 0.02 77 1006.9
20260508012014 42 292 1.0 10.0 0.00 0.02 0.02 78 1006.7
20260508011541 42 281 2.0 10.0 0.00 0.02 0.02 78 1006.6
20260508011015 42 313 2.0 8.0 0.00 0.02 0.02 79 1006.8
20260508010514 42 0 0.0 3.0 0.00 0.02 0.02 79 1006.8
20260508010039 42 309 0.0 3.0 0.00 0.02 0.02 79 1006.7
20260508005515 42 0 0.0 1.0 0.00 0.02 0.02 78 1006.6
20260508005014 43 0 0.0 1.0 0.00 0.02 0.02 78 1006.6
20260508004538 43 0 0.0 4.0 0.00 0.02 0.02 77 1006.6
20260508004014 43 0 0.0 4.0 0.00 0.02 0.02 77 1006.4
20260508003516 43 5 0.0 5.0 0.00 0.02 0.02 77 1006.4
20260508003032 44 0 1.0 8.0 0.00 0.02 0.02 76 1006.4
20260508002515 44 0 0.0 10.0 0.00 0.02 0.02 75 1006.3
20260508002014 44 324 2.0 13.0 0.00 0.02 0.02 74 1006.3
20260508001533 45 342 6.0 13.0 0.00 0.02 0.02 71 1006.2
20260508001017 45 298 1.0 7.0 0.00 0.02 0.02 70 1006.0
20260508000520 45 286 2.0 8.0 0.00 0.02 0.02 70 1006.0
20260508000037 45 298 4.0 10.0 0.00 0.02 0.02 69 1005.8
20260507235516 45 285 3.0 11.0 0.00 0.02 0.02 69 1005.8
20260507235016 45 294 4.0 11.0 0.00 0.02 0.02 68 1005.7
20260507234543 45 314 4.0 10.0 0.00 0.02 0.02 67 1005.6
20260507234015 46 269 3.0 10.0 0.00 0.02 0.02 67 1005.6
20260507233515 46 309 4.0 10.0 0.00 0.02 0.02 68 1005.5
20260507233035 46 296 3.0 10.0 0.00 0.02 0.02 68 1005.5
20260507232519 46 294 3.0 10.0 0.00 0.02 0.02 67 1005.4
20260507232014 46 315 3.0 9.0 0.00 0.02 0.02 66 1005.5
20260507231537 47 288 4.0 13.0 0.00 0.02 0.02 66 1005.4
20260507231015 47 293 3.0 13.0 0.00 0.02 0.02 65 1005.4
20260507230517 47 290 5.0 14.0 0.00 0.02 0.02 65 1005.4
20260507230031 48 287 3.0 17.0 0.00 0.02 0.02 66 1005.2
20260507225515 48 257 5.0 17.0 0.00 0.02 0.02 67 1005.2
20260507225017 47 306 5.0 17.0 0.00 0.02 0.02 67 1005.1
20260507224533 47 325 1.0 9.0 0.00 0.02 0.02 69 1005.1
20260507224018 47 300 1.0 9.0 0.00 0.02 0.02 69 1005.0
20260507223518 47 279 3.0 12.0 0.00 0.02 0.02 68 1005.1
20260507223032 47 0 3.0 12.0 0.00 0.02 0.02 68 1005.1
20260507222523 47 299 1.0 8.0 0.00 0.02 0.02 69 1005.1
20260507222017 47 248 2.0 9.0 0.00 0.02 0.02 69 1005.2
20260507221531 47 277 4.0 9.0 0.00 0.02 0.02 69 1005.1
20260507221016 47 266 2.0 6.0 0.00 0.02 0.02 69 1005.1
20260507220520 47 267 2.0 7.0 0.00 0.02 0.02 69 1005.1
20260507220034 47 309 3.0 7.0 0.00 0.02 0.02 70 1005.1
20260507215518 47 269 1.0 5.0 0.00 0.02 0.02 71 1005.1
20260507215016 46 33 1.0 5.0 0.00 0.02 0.02 72 1005.1
20260507214532 47 347 1.0 6.0 0.00 0.02 0.02 71 1005.2
20260507214015 47 322 2.0 7.0 0.00 0.02 0.02 70 1005.0
20260507213516 47 335 1.0 7.0 0.00 0.02 0.02 70 1005.0
20260507213040 47 334 3.0 7.0 0.00 0.02 0.02 70 1005.1
20260507212516 47 5 1.0 7.0 0.00 0.02 0.02 68 1005.0
20260507212022 48 24 2.0 8.0 0.00 0.02 0.02 68 1005.0
20260507211545 48 355 1.0 9.0 0.00 0.02 0.02 66 1004.9
20260507211017 49 322 3.0 17.0 0.00 0.02 0.02 63 1004.9
20260507210519 50 330 5.0 17.0 0.00 0.02 0.02 56 1004.8
20260507210034 50 247 6.0 15.0 0.00 0.02 0.02 54 1004.5
20260507205516 50 258 4.0 15.0 0.00 0.02 0.02 52 1004.4
20260507205015 51 227 3.0 21.0 0.00 0.02 0.02 53 1004.3
20260507204532 51 211 7.0 21.0 0.00 0.02 0.02 51 1004.0
20260507204043 51 276 3.0 14.0 0.00 0.02 0.02 52 1004.2
20260507203514 50 250 3.0 12.0 0.00 0.02 0.02 51 1004.0
20260507203035 50 282 5.0 12.0 0.00 0.02 0.02 54 1004.1
20260507202515 50 287 4.0 13.0 0.00 0.02 0.02 53 1004.0
20260507202020 50 225 2.0 13.0 0.00 0.02 0.02 54 1004.0
20260507201534 49 267 4.0 12.0 0.00 0.02 0.02 52 1004.0
20260507201015 49 261 4.0 12.0 0.00 0.02 0.02 55 1004.1
20260507200516 49 275 4.0 15.0 0.00 0.02 0.02 56 1004.1
20260507200031 49 252 6.0 15.0 0.00 0.02 0.02 56 1004.0
20260507195515 49 173 2.0 14.0 0.00 0.02 0.02 58 1004.0
20260507195014 49 215 4.0 14.0 0.00 0.02 0.02 56 1004.0
20260507194534 49 267 4.0 16.0 0.00 0.02 0.02 55 1004.1
20260507194015 49 265 6.0 16.0 0.00 0.02 0.02 53 1004.0
20260507193515 49 240 6.0 15.0 0.00 0.02 0.02 54 1004.0
20260507193035 49 248 3.0 17.0 0.00 0.02 0.02 57 1004.1
20260507192515 49 229 8.0 17.0 0.00 0.02 0.02 56 1004.0
20260507192013 49 261 8.0 19.0 0.00 0.02 0.02 55 1004.0
20260507191535 50 192 7.0 19.0 0.00 0.02 0.02 55 1003.9
20260507191015 50 257 6.0 17.0 0.00 0.02 0.02 55 1004.1
20260507190518 51 240 6.0 17.0 0.00 0.02 0.02 53 1004.0
20260507190034 51 214 6.0 17.0 0.00 0.02 0.02 52 1003.9
20260507185516 52 317 8.0 19.0 0.00 0.03 0.02 51 1003.9
20260507185016 52 172 8.0 19.0 0.00 0.03 0.02 52 1003.8
20260507184530 53 231 6.0 17.0 0.00 0.03 0.02 50 1003.9
20260507184018 53 211 6.0 15.0 0.00 0.03 0.02 50 1003.9
20260507183515 53 273 6.0 18.0 0.00 0.03 0.02 51 1003.9
20260507183030 53 254 5.0 20.0 0.00 0.03 0.02 50 1004.0
20260507182514 53 223 10.0 26.0 0.00 0.03 0.02 50 1003.9
20260507182014 53 170 9.0 26.0 0.00 0.03 0.02 51 1004.0
20260507181533 53 220 9.0 20.0 0.00 0.03 0.02 49 1004.0
20260507181019 53 229 7.0 19.0 0.00 0.03 0.02 49 1004.0
20260507180516 52 203 6.0 15.0 0.00 0.03 0.02 57 1004.2
20260507180033 51 300 7.0 15.0 0.00 0.03 0.02 55 1004.1
20260507175522 50 208 6.0 16.0 0.00 0.07 0.02 55 1004.3
20260507175015 50 250 8.0 21.0 0.00 0.07 0.02 54 1004.3
20260507174545 51 266 9.0 21.0 0.00 0.07 0.02 51 1004.2
20260507174018 51 254 8.0 17.0 0.00 0.07 0.02 52 1004.2
20260507173521 52 234 7.0 16.0 0.00 0.07 0.02 52 1004.2
20260507173033 52 163 6.0 16.0 0.00 0.07 0.02 53 1004.3
20260507172515 52 265 7.0 15.0 0.00 0.07 0.02 57 1004.4
20260507172019 51 211 5.0 14.0 0.00 0.07 0.02 56 1004.3
20260507171542 51 238 4.0 16.0 0.00 0.07 0.02 59 1004.2
20260507171016 51 221 6.0 16.0 0.00 0.07 0.02 57 1004.3
20260507170515 51 304 5.0 14.0 0.00 0.07 0.02 59 1004.3
20260507170035 50 282 6.0 17.0 0.00 0.07 0.02 59 1004.3
20260507165521 50 288 6.0 17.0 0.00 0.15 0.02 62 1004.4
20260507165015 49 277 3.0 14.0 0.00 0.15 0.02 63 1004.3
20260507164537 50 286 4.0 15.0 0.00 0.15 0.02 61 1004.4
20260507164016 50 273 4.0 15.0 0.00 0.15 0.02 63 1004.6
20260507163516 50 239 5.0 15.0 0.00 0.15 0.02 60 1004.6
20260507163034 51 229 6.0 18.0 0.00 0.15 0.02 61 1004.7
20260507162514 52 156 8.0 18.0 0.00 0.15 0.02 58 1004.6
20260507162016 51 240 6.0 16.0 0.00 0.15 0.02 59 1004.7
20260507161530 51 217 6.0 20.0 0.00 0.15 0.02 62 1004.6
20260507161018 51 253 7.0 20.0 0.00 0.15 0.02 57 1004.7
20260507160516 50 225 4.0 12.0 0.00 0.15 0.02 63 1004.9
20260507160048 49 260 3.0 14.0 0.00 0.15 0.02 62 1004.8
20260507155514 49 245 5.0 16.0 0.00 0.23 0.02 61 1004.9
20260507155014 49 259 5.0 16.0 0.00 0.23 0.02 63 1004.9
20260507154535 49 247 3.0 18.0 0.00 0.23 0.02 65 1004.8
20260507154016 49 246 7.0 18.0 0.00 0.23 0.02 62 1004.9
20260507153515 49 267 4.0 11.0 0.00 0.23 0.02 70 1005.0
20260507153035 47 147 1.0 12.0 0.00 0.23 0.02 74 1004.9
20260507152517 46 210 5.0 12.0 0.00 0.23 0.02 72 1005.0
20260507152018 46 277 3.0 13.0 0.00 0.23 0.02 77 1005.1
20260507151534 45 204 4.0 13.0 0.00 0.23 0.02 77 1005.3
20260507151015 44 260 5.0 12.0 0.00 0.23 0.02 76 1005.4
20260507150515 44 279 4.0 12.0 0.00 0.23 0.02 78 1005.5
20260507150037 44 254 4.0 9.0 0.00 0.23 0.02 78 1005.4
20260507145516 44 266 4.0 10.0 0.00 0.30 0.02 78 1005.4
20260507145020 43 246 4.0 12.0 0.00 0.30 0.02 78 1005.4
20260507144532 44 266 5.0 12.0 0.00 0.30 0.02 78 1005.4
20260507144016 44 167 6.0 13.0 0.00 0.30 0.02 79 1005.4
20260507143514 44 275 6.0 13.0 0.00 0.30 0.02 80 1005.4
20260507143032 44 203 5.0 13.0 0.01 0.30 0.02 80 1005.3
20260507142517 44 244 3.0 12.0 0.01 0.30 0.02 81 1005.3
20260507142017 44 157 4.0 12.0 0.01 0.30 0.02 82 1005.3
20260507141534 43 190 4.0 12.0 0.02 0.30 0.02 82 1005.3
20260507141018 43 217 4.0 12.0 0.02 0.30 0.02 83 1005.3
20260507140516 43 232 3.0 9.0 0.02 0.30 0.02 83 1005.3
20260507140044 43 231 4.0 9.0 0.02 0.30 0.02 84 1005.3
20260507135516 43 152 3.0 9.0 0.02 0.38 0.02 84 1005.3
20260507135018 43 235 1.0 9.0 0.02 0.38 0.02 85 1005.4
20260507134531 43 304 3.0 12.0 0.02 0.38 0.02 85 1005.4
20260507134016 43 204 2.0 13.0 0.02 0.38 0.02 85 1005.4
20260507133516 43 227 5.0 13.0 0.01 0.37 0.01 84 1005.5
20260507133034 43 199 4.0 11.0 0.01 0.37 0.01 84 1005.6
20260507132514 44 247 3.0 10.0 0.01 0.37 0.01 83 1005.5
20260507132016 44 215 3.0 10.0 0.01 0.37 0.01 83 1005.6
20260507131603 44 259 4.0 13.0 0.00 0.36 0.00 83 1005.5
20260507131016 44 240 5.0 14.0 0.00 0.36 0.00 83 1005.5
20260507130516 44 213 5.0 14.0 0.00 0.36 0.00 82 1005.5
20260507130031 44 245 4.0 11.0 0.00 0.36 0.00 83 1005.4
20260507125515 44 200 3.0 10.0 0.00 0.43 0.00 83 1005.4
20260507125015 44 252 5.0 10.0 0.00 0.43 0.00 83 1005.5
20260507124537 44 224 3.0 9.0 0.00 0.43 0.00 83 1005.4
20260507124013 44 183 3.0 9.0 0.00 0.43 0.00 83 1005.4
20260507123517 44 209 2.0 10.0 0.00 0.43 0.00 84 1005.4
20260507123040 44 0 3.0 10.0 0.00 0.43 0.00 84 1005.4
20260507122518 44 252 3.0 10.0 0.00 0.43 0.00 85 1005.4
20260507122015 44 221 3.0 10.0 0.00 0.43 0.00 85 1005.2
20260507121530 44 217 2.0 8.0 0.00 0.43 0.00 86 1005.2
20260507121015 44 195 3.0 7.0 0.00 0.43 0.00 86 1005.3
20260507120516 43 194 3.0 8.0 0.00 0.43 0.00 86 1005.3
20260507120033 43 220 3.0 8.0 0.00 0.43 0.00 86 1005.4
20260507115516 43 195 2.0 10.0 0.00 0.45 0.00 87 1005.4
20260507115014 43 148 3.0 10.0 0.00 0.45 0.00 87 1005.4
20260507114533 43 149 5.0 10.0 0.00 0.45 0.00 87 1005.5
20260507114020 43 192 4.0 9.0 0.00 0.45 0.00 87 1005.4
20260507113516 42 215 3.0 11.0 0.00 0.45 0.00 87 1005.3
20260507113100 42 235 4.0 11.0 0.00 0.45 0.00 87 1005.3
20260507112518 42 194 5.0 11.0 0.00 0.45 0.00 87 1005.4
20260507112019 42 178 3.0 12.0 0.00 0.45 0.00 87 1005.5
20260507111532 42 206 3.0 12.0 0.00 0.45 0.00 87 1005.5
20260507111016 42 182 5.0 10.0 0.00 0.45 0.00 87 1005.6
20260507110516 42 171 3.0 10.0 0.00 0.45 0.00 87 1005.5
20260507110038 42 165 3.0 10.0 0.00 0.45 0.00 87 1005.5
20260507105520 42 178 4.0 9.0 0.00 0.45 0.00 87 1005.6
20260507105014 42 207 3.0 10.0 0.00 0.45 0.00 87 1005.7
20260507104532 42 171 4.0 10.0 0.00 0.45 0.00 88 1005.7
20260507104015 41 176 3.0 8.0 0.00 0.45 0.00 88 1005.6
20260507103515 41 153 3.0 8.0 0.00 0.45 0.00 88 1005.5
20260507103029 41 158 3.0 7.0 0.00 0.45 0.00 88 1005.6
20260507102515 41 0 2.0 7.0 0.00 0.45 0.00 88 1005.4
20260507102017 41 170 1.0 8.0 0.00 0.45 0.00 88 1005.3
20260507101536 41 171 2.0 8.0 0.00 0.45 0.00 88 1005.3
20260507101015 41 185 3.0 5.0 0.00 0.45 0.00 88 1005.4
20260507100515 41 183 2.0 6.0 0.00 0.45 0.00 88 1005.3
20260507100042 41 155 3.0 9.0 0.00 0.45 0.00 88 1005.3
20260507095515 41 191 2.0 9.0 0.00 0.45 0.00 88 1005.1
20260507095015 41 168 3.0 9.0 0.00 0.45 0.00 88 1005.1
20260507094530 41 180 2.0 8.0 0.00 0.45 0.00 88 1005.1
20260507094014 41 206 4.0 8.0 0.00 0.45 0.00 88 1005.2
20260507093515 41 200 2.0 7.0 0.00 0.45 0.00 88 1005.2
20260507093035 41 195 3.0 7.0 0.00 0.45 0.00 88 1005.1
20260507092517 41 186 3.0 7.0 0.00 0.45 0.00 88 1004.9
20260507092017 41 160 3.0 7.0 0.00 0.45 0.00 88 1005.1
20260507091539 40 248 3.0 7.0 0.00 0.45 0.00 88 1005.2
20260507091014 41 184 3.0 8.0 0.00 0.45 0.00 87 1005.3
20260507090516 41 167 3.0 8.0 0.00 0.45 0.00 87 1005.4
20260507090032 41 189 1.0 7.0 0.00 0.45 0.00 87 1005.5
20260507085515 41 219 3.0 7.0 0.00 0.45 0.00 87 1005.4
20260507085013 41 152 3.0 7.0 0.00 0.45 0.00 87 1005.4
20260507084546 41 202 3.0 9.0 0.00 0.45 0.00 87 1005.5
20260507084016 41 178 2.0 9.0 0.00 0.45 0.00 87 1005.5
20260507083515 41 175 3.0 7.0 0.00 0.45 0.00 87 1005.4
20260507083030 41 236 3.0 7.0 0.00 0.45 0.00 87 1005.4
20260507082516 41 193 3.0 8.0 0.00 0.45 0.00 87 1005.4
20260507082014 41 172 2.0 8.0 0.00 0.45 0.00 87 1005.5
20260507081531 41 200 3.0 6.0 0.00 0.45 0.00 87 1005.5
20260507081017 41 200 3.0 7.0 0.00 0.45 0.00 87 1005.5
20260507080515 41 154 3.0 7.0 0.00 0.45 0.00 87 1005.5
20260507080030 41 188 2.0 5.0 0.00 0.45 0.00 87 1005.4
20260507075515 41 206 2.0 7.0 0.00 0.45 0.00 86 1005.4
20260507075020 41 180 3.0 12.0 0.00 0.45 0.00 87 1005.4
20260507074530 41 118 2.0 12.0 0.00 0.45 0.00 87 1005.4
20260507074015 41 173 3.0 7.0 0.00 0.45 0.00 87 1005.5
20260507073516 41 200 2.0 8.0 0.00 0.45 0.00 86 1005.5
20260507073032 41 244 2.0 10.0 0.00 0.45 0.00 86 1005.5
20260507072516 41 215 4.0 10.0 0.00 0.45 0.00 86 1005.5
20260507072016 41 165 3.0 9.0 0.00 0.45 0.00 87 1005.6
20260507071535 41 244 3.0 9.0 0.00 0.45 0.00 87 1005.6
20260507071017 41 207 3.0 8.0 0.00 0.45 0.00 87 1005.4
20260507070517 41 198 3.0 7.0 0.00 0.45 0.00 87 1005.5
20260507070030 41 0 2.0 9.0 0.00 0.45 0.00 87 1005.6
20260507065514 41 162 4.0 10.0 0.00 0.45 0.00 87 1005.5
20260507065016 41 200 2.0 10.0 0.00 0.45 0.00 87 1005.6
20260507064538 41 183 4.0 10.0 0.00 0.45 0.00 87 1005.6
20260507064015 41 158 2.0 7.0 0.00 0.45 0.00 87 1005.6
20260507063518 41 192 1.0 7.0 0.00 0.45 0.00 87 1005.7
20260507063031 41 184 2.0 9.0 0.00 0.45 0.00 87 1005.6
20260507062515 41 223 3.0 9.0 0.00 0.45 0.00 87 1005.7
20260507062015 41 171 2.0 6.0 0.00 0.45 0.00 87 1005.7
20260507061537 41 180 2.0 7.0 0.00 0.45 0.00 88 1005.8
20260507061016 41 204 3.0 7.0 0.00 0.45 0.00 88 1005.8
20260507060515 41 172 2.0 8.0 0.00 0.45 0.00 88 1005.9
20260507060037 41 180 2.0 8.0 0.00 0.45 0.00 88 1005.9
20260507055516 41 157 2.0 7.0 0.00 0.45 0.00 88 1006.1
20260507055015 41 181 3.0 7.0 0.00 0.45 0.00 88 1006.1
20260507054539 41 210 2.0 7.0 0.00 0.45 0.00 88 1006.1
20260507054020 41 0 4.0 7.0 0.00 0.45 0.00 88 1006.3
20260507053517 41 223 3.0 6.0 0.00 0.45 0.00 88 1006.4
20260507053032 41 205 1.0 8.0 0.00 0.45 0.00 88 1006.5
20260507052515 41 190 3.0 8.0 0.00 0.45 0.00 89 1006.6
20260507052016 41 173 2.0 9.0 0.00 0.45 0.00 89 1006.7
20260507051532 41 184 3.0 9.0 0.00 0.45 0.00 89 1006.7
20260507051021 41 208 1.0 6.0 0.00 0.45 0.00 89 1006.7
20260507050515 41 198 2.0 6.0 0.00 0.45 0.00 89 1006.8
20260507050058 41 184 2.0 5.0 0.00 0.45 0.00 89 1006.8
20260507045515 41 179 2.0 5.0 0.00 0.45 0.00 89 1006.8
20260507045015 41 188 1.0 5.0 0.00 0.45 0.00 89 1006.9
20260507044546 41 197 1.0 5.0 0.00 0.45 0.00 89 1006.9
20260507044015 41 178 2.0 5.0 0.00 0.45 0.00 89 1007.0
20260507043515 41 173 1.0 5.0 0.00 0.45 0.00 89 1007.0
20260507043032 41 208 2.0 5.0 0.00 0.45 0.00 89 1007.1
20260507042516 41 183 1.0 5.0 0.00 0.45 0.00 89 1007.1
20260507042015 41 182 2.0 5.0 0.00 0.45 0.00 89 1007.2
20260507041529 42 194 0.0 4.0 0.00 0.45 0.00 89 1007.2
20260507041015 42 188 1.0 4.0 0.00 0.45 0.00 89 1007.2
20260507040516 42 0 1.0 4.0 0.00 0.45 0.00 89 1007.2
20260507040029 42 180 1.0 3.0 0.00 0.45 0.00 89 1007.3
20260507035515 42 198 1.0 3.0 0.00 0.47 0.45 89 1007.3
20260507035015 42 0 0.0 2.0 0.00 0.47 0.45 89 1007.3
20260507034538 42 244 1.0 3.0 0.00 0.47 0.45 89 1007.3
20260507034018 42 0 0.0 3.0 0.00 0.47 0.45 89 1007.2